Location: Cudham
(51.3000°N, 0.0667°E)
Time: 19:46:11
(UTC+00:00)

SL-16 R/B - Pass Details

Date: 19 May 2025
Orbit: 841 x 844 km, 71.0° (Epoch: 21 June)

Event Time Altitude Azimuth Distance (km) Brightness Sun altitude
Rises 22:39:47 0° 330° (NNW) 3,415 7.0 -16.8°
Reaches altitude 10° 22:42:16 10° 333° (NNW) 2,476 5.9 -16.9°
Maximum altitude 22:47:56 70° 57° (ENE) 898 2.3 -17.2°
Enters shadow 22:51:19 25° 137° (SE) 1,643 3.2 -17.3°
